Weather History for Truckee-Tahoe, CA

Change the Weather History Date:

Saturday, March 30, 2013

  Actual Average Record
Temperature  
Mean Temperature 45 °F -  
Max Temperature 64 °F 50 °F 71 °F (1986)
Min Temperature 26 °F 23 °F 10 °F (1975)
Degree Days  
Heating Degree Days 20    
Moisture  
Dew Point 32 °F    
Average Humidity 78    
Maximum Humidity 100    
Minimum Humidity 24    
Precipitation  
Precipitation 0.00 in - - ()
Sea Level Pressure  
Sea Level Pressure 30.17 in    
Wind  
Wind Speed 2 mph (SSW)    
Max Wind Speed 15 mph    
Max Gust Speed 24 mph    
Visibility 8 miles    
Events Fog , Thunderstorm    
Averages and records for this station are not official NWS values.
T = Trace of Precipitation, MM = Missing Value Source: NWS Daily Summary

Daily Weather History Graph

Daily Weather History Graph

Search for Another Location

Airport:

Trip Planner

Search our weather history database for the weather conditions in past years. The results will help you decide how hot, cold, wet, or windy it might be!

Date:

Astronomy

Mar. 30, 2013 Rise Set
Actual Time 6:47 AM PDT 7:22 PM PDT
Civil Twilight 6:20 AM PDT 7:49 PM PDT
Nautical Twilight 5:48 AM PDT 8:21 PM PDT
Astronomical Twilight 5:16 AM PDT 8:54 PM PDT
Moon 11:33 PM PDT (3/30) 8:48 AM PDT (3/30)
Length of Visible Light 13h 29m
Length of Day
12h 35m
Waning Gibbous, 85% of the Moon is Illuminated
Mar 30
Waning Gibbous
Apr 2
Last Quarter
Apr 10
New
Apr 18
First Quarter
Apr 25
Full

Hourly Weather History & Observations

Time (PDT) Temp. Windchill Dew Point Humidity Pressure Visibility Wind Dir Wind Speed Gust Speed Precip Events Conditions
12:15 AM 32.0 °F - 30.2 °F 93% 30.25 in 10.0 mi Calm Calm - N/A   Clear
12:35 AM 32.0 °F - 30.2 °F 93% 30.25 in 10.0 mi Calm Calm - N/A   Clear
12:55 AM 32.0 °F - 30.2 °F 93% 30.25 in 10.0 mi Calm Calm - N/A   Clear
1:15 AM 30.2 °F - 28.4 °F 93% 30.25 in 10.0 mi Calm Calm - N/A   Clear
1:35 AM 32.0 °F - 32.0 °F 100% 30.24 in 10.0 mi Calm Calm - N/A   Clear
1:55 AM 32.0 °F - 30.2 °F 93% 30.24 in 10.0 mi Calm Calm - N/A   Clear
2:15 AM 30.2 °F - 28.4 °F 93% 30.24 in 10.0 mi Calm Calm - N/A   Clear
2:35 AM 30.2 °F - 28.4 °F 93% 30.24 in 2.0 mi Calm Calm - N/A   Clear
2:55 AM 28.4 °F - 28.4 °F 100% 30.24 in 0.8 mi Calm Calm - N/A   Mist
3:15 AM 32.0 °F - 30.2 °F 93% 30.23 in 8.0 mi Calm Calm - N/A   Clear
3:35 AM 28.4 °F - 28.4 °F 100% 30.23 in 0.5 mi Calm Calm - N/A Fog Light Freezing Fog
3:55 AM 30.2 °F - 30.2 °F 100% 30.23 in 1.8 mi Calm Calm - N/A   Clear
4:15 AM 28.4 °F 24.6 °F 26.6 °F 93% 30.23 in 0.5 mi SW 3.5 mph - N/A Fog Light Freezing Fog
4:35 AM 26.6 °F - 26.6 °F 100% 30.22 in 1.2 mi Calm Calm - N/A   Scattered Clouds
4:55 AM 26.6 °F - 26.6 °F 100% 30.22 in 10.0 mi Calm Calm - N/A   Clear
5:15 AM 26.6 °F - 26.6 °F 100% 30.22 in 0.2 mi Calm Calm - N/A Fog Light Freezing Fog
5:35 AM 26.6 °F - 26.6 °F 100% 30.22 in 0.2 mi Calm Calm - N/A Fog Light Freezing Fog
5:55 AM 26.6 °F - 26.6 °F 100% 30.22 in 0.5 mi Calm Calm - N/A Fog Light Freezing Fog
6:15 AM 26.6 °F - 26.6 °F 100% 30.22 in 0.2 mi Calm Calm - N/A Fog Light Freezing Fog
6:35 AM 26.6 °F - 26.6 °F 100% 30.22 in 0.2 mi Calm Calm - N/A Fog Light Freezing Fog
6:45 AM 26.6 °F - 26.6 °F 100% 30.22 in 10.0 mi Calm Calm - N/A   Scattered Clouds
7:45 AM 30.2 °F - 28.4 °F 93% 30.23 in 10.0 mi Calm Calm - N/A   Scattered Clouds
8:50 AM 35.6 °F 31.7 °F 32.0 °F 87% 30.23 in 10.0 mi East 4.6 mph - N/A   Scattered Clouds
9:55 AM 44.6 °F 43.1 °F 32.0 °F 61% 30.22 in 10.0 mi North 3.5 mph - N/A   Scattered Clouds
10:55 AM 53.6 °F - 32.0 °F 44% 30.21 in 10.0 mi NE 5.8 mph - N/A   Partly Cloudy
11:55 AM 59.0 °F - 30.2 °F 34% 30.20 in 10.0 mi SSE 5.8 mph - N/A   Partly Cloudy
12:55 PM 62.6 °F - 28.4 °F 27% 30.18 in 10.0 mi SE 15.0 mph 24.2 mph N/A   Mostly Cloudy
1:45 PM 64.4 °F - 26.6 °F 24% 30.17 in 10.0 mi SE 10.4 mph 18.4 mph N/A   Mostly Cloudy
2:55 PM 62.6 °F - 24.8 °F 24% 30.13 in 10.0 mi SSE 10.4 mph 18.4 mph N/A   Overcast
3:55 PM 59.0 °F - 28.4 °F 31% 30.13 in 10.0 mi SSE 8.1 mph - N/A   Overcast
4:55 PM 53.6 °F - 26.6 °F 35% 30.14 in 10.0 mi West 10.4 mph 18.4 mph N/A   Overcast
5:45 PM 51.8 °F - 37.4 °F 58% 30.13 in 10.0 mi West 12.7 mph - N/A   Mostly Cloudy
5:55 PM 50.0 °F - 37.4 °F 62% 30.13 in 10.0 mi West 12.7 mph - N/A   Partly Cloudy
6:15 PM 50.0 °F - 37.4 °F 62% 30.12 in 10.0 mi West 9.2 mph - N/A   Partly Cloudy
6:35 PM 50.0 °F - 37.4 °F 62% 30.13 in 10.0 mi WSW 6.9 mph - N/A   Partly Cloudy
6:55 PM 48.2 °F - 37.4 °F 66% 30.11 in 10.0 mi SW 5.8 mph - N/A   Scattered Clouds
7:15 PM 48.2 °F - 37.4 °F 66% 30.12 in 10.0 mi Calm Calm - N/A   Mostly Cloudy
7:35 PM 46.4 °F 44.3 °F 37.4 °F 71% 30.12 in 10.0 mi North 4.6 mph - N/A   Mostly Cloudy
7:55 PM 46.4 °F 43.5 °F 37.4 °F 71% 30.11 in 10.0 mi WNW 5.8 mph - N/A   Mostly Cloudy
8:15 PM 44.6 °F - 35.6 °F 71% 30.11 in 10.0 mi Calm Calm - N/A   Mostly Cloudy
8:35 PM 42.8 °F 41.1 °F 35.6 °F 76% 30.10 in 10.0 mi North 3.5 mph - N/A   Mostly Cloudy
8:55 PM 41.0 °F 39.0 °F 35.6 °F 81% 30.11 in 10.0 mi South 3.5 mph - N/A   Mostly Cloudy
9:15 PM 41.0 °F 37.1 °F 35.6 °F 81% 30.11 in 10.0 mi ESE 5.8 mph - N/A   Overcast
9:35 PM 41.0 °F - 35.6 °F 81% 30.11 in 10.0 mi Calm Calm - N/A   Mostly Cloudy
9:55 PM 44.6 °F - 37.4 °F 76% 30.11 in 10.0 mi Calm Calm - N/A   Mostly Cloudy
10:15 PM 41.0 °F 39.0 °F 35.6 °F 81% 30.10 in 10.0 mi SW 3.5 mph - N/A Thunderstorm Overcast
10:35 PM 41.0 °F 38.0 °F 35.6 °F 81% 30.10 in 10.0 mi North 4.6 mph - N/A   Mostly Cloudy
10:55 PM 41.0 °F 38.0 °F 35.6 °F 81% 30.10 in 10.0 mi SSE 4.6 mph - N/A   Mostly Cloudy
11:15 PM 41.0 °F 37.1 °F 37.4 °F 87% 30.10 in 10.0 mi ESE 5.8 mph - N/A Thunderstorm Mostly Cloudy
11:35 PM 41.0 °F 39.0 °F 35.6 °F 81% 30.09 in 10.0 mi SSW 3.5 mph - N/A Thunderstorm Scattered Clouds
11:55 PM 41.0 °F - 35.6 °F 81% 30.08 in 10.0 mi Calm Calm - N/A Thunderstorm Partly Cloudy